Location: NJAA Observatory
(40.6819°N, 74.8979°W)
Time: 01:44:09
(UTC-05:00)

Transit 2A Rocket - Visible Passes

Search period start: 10 February 2016 00:00
Search period end: 20 February 2016 00:00
Orbit: 592 x 913 km, 66.7° (Epoch: 08 February)

Date Brightness Start Highest point End Pass type
(mag) Time Alt. Az. Time Alt. Az. Time Alt. Az.
10 Feb 7.5 04:57:56 10° N 05:01:08 16° NE 05:04:28 10° E visible
11 Feb 7.8 04:17:30 10° NNE 04:18:25 10° NE 04:19:20 10° NE visible
11 Feb 5.8 05:56:54 10° NNW 06:02:04 55° ENE 06:07:40 10° SE visible
12 Feb 6.6 05:14:57 10° NNW 05:19:41 34° NE 05:24:48 10° ESE visible
13 Feb 7.3 04:33:10 10° N 04:37:11 22° NE 04:41:27 10° E visible
13 Feb 5.2 06:14:53 10° NW 06:20:09 64° WSW 06:25:52 10° SSE visible
14 Feb 7.7 03:51:48 10° N 03:54:34 14° NE 03:57:29 10° ENE visible
14 Feb 5.2 05:32:36 10° NNW 05:37:56 78° ENE 05:43:43 10° SSE visible
15 Feb 6.0 04:51:00 13° NNW 04:55:36 47° NE 05:01:08 10° SE visible
16 Feb 6.8 04:10:23 19° N 04:13:12 30° NE 04:18:08 10° ESE visible
16 Feb 5.5 05:50:49 10° NW 05:55:55 44° WSW 06:01:24 10° S visible
16 Feb 6.4 18:45:34 10° SE 18:46:39 14° SE 18:46:39 14° SE visible
16 Feb 7.2 20:26:03 10° SW 20:26:41 14° SW 20:26:41 14° SW visible
17 Feb 7.3 03:29:54 19° NE 03:30:40 19° NE 03:34:38 10° E visible
17 Feb 5.0 05:09:52 20° NW 05:13:45 75° WSW 05:19:33 10° SSE visible
17 Feb 4.9 19:43:38 10° SSW 19:47:00 55° SSW 19:47:00 55° SSW visible
18 Feb 8.0 02:49:35 11° ENE 02:49:35 11° ENE 02:50:23 10° ENE visible
18 Feb 5.4 04:29:35 40° N 04:31:29 67° ENE 04:37:15 10° SE visible
18 Feb 6.6 06:10:02 10° WNW 06:13:41 18° WSW 06:17:29 10° SSW visible
18 Feb 4.7 19:01:39 10° S 19:05:46 47° ESE 19:07:18 33° ENE visible
18 Feb 7.2 20:45:26 10° W 20:47:19 17° WNW 20:47:19 17° WNW visible
19 Feb 6.2 03:49:27 40° ENE 03:49:27 40° ENE 03:54:33 10° SE visible
19 Feb 5.9 05:29:27 23° WNW 05:31:39 31° WSW 05:36:41 10° S visible
19 Feb 5.6 18:20:14 10° SSE 18:23:44 25° ESE 18:27:21 10° NE visible
19 Feb 6.2 20:02:12 10° WSW 20:06:06 32° NW 20:07:31 26° NNW visible
